Location: Unspecified
(0.0000°N, 0.0000°E)
Time: 11:30:08
(UTC+00:00)

Courier 1B - Pass Details

Date: 23 November 2019
Orbit: 963 x 1209 km, 28.3° (Epoch: 07 December)

Event Time Altitude Azimuth Distance (km) Brightness Sun altitude
Rises 23:37:43 0° 238° (WSW) 4,099 - -69.4°
Reaches altitude 10° 23:40:34 10° 237° (WSW) 3,142 - -69.5°
Maximum altitude 23:48:28 83° 150° (SSE) 1,208 - -69.6°
Drops below altitude 10° 23:56:12 10° 62° (ENE) 3,076 - -69.4°
Sets 23:58:58 0° 61° (ENE) 4,010 - -69.3°
